SAUDISAT 3 (31118 NORAD) Tracking and Keplerian Element Data

This shows tracking and keplerian element data for the satellite.

Feedback or suggestion? Click here.




ElementValue
Catalog31118
NameSAUDISAT 3
Epoch Orbit141
Epoch Day354.13261167
Epoch Year2025
RAAN299.677
Inclination98.1241
Eccentricity0.0016038
Argument of Perigee78.1516
Mean Anonmoly282.1488
Mean Motion14.71260661
Decay Rate2.36E-06
L11 31118U 07012B 25354.13261167 .00000236 00000+0 46327-4 0 9996
L22 31118 98.1241 299.6770 0016038 78.1516 282.1488 14.71260661 1410



Live tracking and technical data element details for SAUDISAT 3 (NORAD 31118). SAUDISAT 3 can be tracked NOW for your location showing map with azimuth and elevation plus other details from your city location.







IsCatalogInMostPopularTable: catalog: 31118, numindb: 458
Update: records affected: 1



GetName: 31118 SAUDISAT 3

Hit Count: updated at: Sat, 07 Mar 2026 06:24:52 GMT